Briefing drone pour Saint-etienne (LFMH)

Rechercher une autre localisation

Conditions de vol :


Nous sommes le : Mardi 03 août 2021
Il est 01:53 UTC (03:54 LT)

Lever de soleil : 04:02 UTC (06:02 LT)
Coucher de soleil : 19:34 UTC (21:34 LT)

Météo

L'essentiel des conditions de vol

VIGILANCE MÉTÉO FRANCE - Loire (42)
Pas de vigilances particulieres
CARTE TEMSI
CARTES DES FRONTS
METAR de LFMH
LFMH 030130Z AUTO 16003KT CAVOK 12/11 Q1017

Date d'émission: 03/08/2021
Heure d'émission: 01:30 UTC
Vent: 160° pour 3 KT (6 km/h)
Visibilité horizontale: > 10 km
Plafond : Plafond et visibilité OK (CAVOK)
Température: 12 °C
Point de rosée: 11 °C
Humidité: 94%
Pression (QNH): 1017 hPa
TAF de LFMH
LFMH 161901Z 1619/1712 CNL

Conditions prévues :

Heure d'émission : Bulletin éffectué le 16 à 19:00 UTC
Prévision : Valide du 16 a 19:00 UTC au 17 a 12:00 UTC
Nuages : à 0ft (0 m)
WEBCAM POUR SAINT-ETIENNE

Réglementation

Voler en sécurité

CARTES AERONAUTIQUE 1/500.000
CARTES VAC (LFMH)
SUP AIP




Chargement des AIP...
NOTAM (SAINT-ETIENNE + Terrain à proximité / FIR )




Chargement des NOTAMS...
CONTACT PREFECTURE 42


Avertissement : Les données mises à disposition sont indicatives. Oxygène Drone ne pourra être tenu responsable de dégâts causés aux biens et aux personnes.